Location: Lancaster
(34.6980°N, 118.1360°W)
Time: 11:11:02
(UTC-08:00)

Tiangong 2 - Pass Details

Date: 13 November 2017
Orbit: 386 x 391 km, 42.8° (Epoch: 17 November)

Event Time Altitude Azimuth Distance (km) Brightness Sun altitude
Rises 19:00:44 0° 276° (W) 2,268 6.2 -27.2°
Reaches altitude 10° 19:04:30 10° 230° (SW) 1,406 4.5 -28.0°
Enters shadow 19:04:57 10° 222° (SW) 1,392 4.4 -28.1°
